Location: La Brionne
(46.1728°N, 1.7849°E)
Time: 06:53:11
(UTC+00:00)

Lacrosse 5 - Pass Details

Date: 16 June 2021
Orbit: 715 x 724 km, 57.0° (Epoch: 28 July)

Event Time Altitude Azimuth Distance (km) Brightness Sun altitude
Rises 21:05:01 0° 306° (NW) 3,126 6.9 -10.6°
Reaches altitude 10° 21:07:28 10° 301° (WNW) 2,204 5.6 -10.9°
Maximum altitude 21:12:18 47° 228° (SW) 953 2.5 -11.4°
Enters shadow 21:16:11 15° 160° (SSE) 1,857 3.4 -11.8°
